Simultaneous Nadir Overpasses (SNOs) Predictions

Prediction of SNOs between GOES-15 and METOP-C Satellite Orbit:

Table of predicted SNOs for the next 14.0 days since TLE Epoch: 2/15/2020
Index Date Time (GOES-15) GOES-15 Lat,Lon METOP-C Lat,Lon Distance(km) Time Diff (sec)
1 02/16/2020 05:57:22 -0.07,-128.37 0.26,-126.90 166.95 80
2 02/17/2020 18:18:50 0.11,-128.41 0.77,-131.44 344.68 80
3 02/18/2020 17:55:29 0.08,-128.42 -0.36,-126.44 226.00 80
4 02/20/2020 06:17:05 -0.13,-128.41 -0.68,-131.01 296.17 80
5 02/21/2020 05:53:44 -0.10,-128.42 0.44,-126.01 274.51 80
6 02/22/2020 18:15:12 0.14,-128.46 0.60,-130.55 237.67 80
7 02/23/2020 17:51:50 0.11,-128.47 -0.52,-125.55 332.91 80
8 02/25/2020 06:13:27 -0.16,-128.45 -0.51,-130.12 189.52 80
9 02/26/2020 05:50:05 -0.13,-128.46 0.62,-125.12 380.97 80
10 02/27/2020 18:11:34 0.17,-128.50 0.44,-129.66 131.86 80
11 02/28/2020 17:48:13 0.14,-128.51 -0.74,-124.67 438.27 80




NCC Satellite Simultaneous Nadir Overpasses (SNOs) Prediction Service
